This is the latest recevied weather packets stored in our database for station/object WZ8H. If no packets are shown the sender has not sent any weather packets the latest 10 day(s).
| Time | Temp. | Humidity | Pressure | Rain* | Wind** | Luminosity | Snow |
|---|---|---|---|---|---|---|---|
| 1778014960 | 11.11° C | 93% | 1006.8 hPa | 1.27 mm | - | 33 W/m² | - |
| 1778014635 | 11.11° C | 93% | 1006.8 hPa | 1.52 mm | - | 77 W/m² | - |
| 1778014332 | 11.11° C | 93% | 1006.7 hPa | 1.52 mm | - | 81 W/m² | - |
| 1778014004 | 11.11° C | 93% | 1006.7 hPa | 1.52 mm | - | 90 W/m² | - |
| 1778013680 | 11.11° C | 93% | 1006.9 hPa | 1.78 mm | - | 88 W/m² | - |
| 1778013352 | 11.11° C | 93% | 1007 hPa | 2.03 mm | - | 88 W/m² | - |
| 1778013024 | 11.11° C | 93% | 1007 hPa | 2.03 mm | - | 116 W/m² | - |
| 1778012722 | 11.67° C | 93% | 1007.1 hPa | 2.03 mm | - | 123 W/m² | - |
| 1778012395 | 11.67° C | 93% | 1007.4 hPa | 2.03 mm | - | 95 W/m² | - |
| 1778012088 | 11.67° C | 93% | 1007.3 hPa | 2.54 mm | - | 95 W/m² | - |
| 1778011788 | 11.67° C | 93% | 1007.3 hPa | 2.54 mm | - | 95 W/m² | - |
| 1778011487 | 11.67° C | 93% | 1007.4 hPa | 2.79 mm | - | 84 W/m² | - |
| 1778011150 | 11.67° C | 93% | 1007.3 hPa | 3.05 mm | - | 79 W/m² | - |
| 1778010848 | 12.22° C | 93% | 1007.5 hPa | 3.3 mm | - | 49 W/m² | - |
| 1778010521 | 12.22° C | 93% | 1007.5 hPa | 3.3 mm | - | 62 W/m² | - |
| 1778010217 | 12.22° C | 93% | 1007.4 hPa | 3.3 mm | - | 60 W/m² | - |
| 1778009910 | 12.78° C | 92% | 1007.4 hPa | 3.3 mm | - | 53 W/m² | - |
| 1778009607 | 12.78° C | 92% | 1007.3 hPa | 3.3 mm | - | 40 W/m² | - |
| 1778009305 | 13.33° C | 92% | 1007.1 hPa | 3.56 mm | - | 40 W/m² | - |
| 1778009002 | 13.33° C | 93% | 1007 hPa | 3.56 mm | - | 77 W/m² | - |
| 1778008677 | 13.33° C | 92% | 1007 hPa | 3.56 mm | - | 53 W/m² | - |
| 1778008372 | 13.33° C | 92% | 1006.9 hPa | 3.81 mm | - | 58 W/m² | - |
| 1778008047 | 13.33° C | 92% | 1007 hPa | 3.56 mm | - | 65 W/m² | - |
| 1778007746 | 13.33° C | 92% | 1007 hPa | 3.05 mm | - | 37 W/m² | - |
| 1778007434 | 13.33° C | 92% | 1006.8 hPa | 3.05 mm | - | 65 W/m² | - |
* Rain latest hour (hover to see other rain measurements)
** Current wind speed in m/s (hover to see current wind gust speed)